1499569200.67,15970,16.88,74062.5,2.87,-11.29,-13.97,0,*7D
1499569201.92,15971,16.88,74068.3,2.87,-11.37,-14.05,0,*7F
1499569203.17,15972,16.88,74068.3,2.87,-11.37,-14.05,0,*7C
1499569204.37,15973,16.88,74072.3,2.87,-11.41,-14.15,0,*7D
1499569205.65,15974,16.88,74068.5,2.89,-11.37,-14.05,0,*74
1499569206.88,15975,16.88,74072.0,2.85,-11.45,-14.11,0,*79
1499569208.11,15976,16.88,74072.3,2.87,-11.41,-14.05,0,*79
1499569209.37,15977,16.88,74064.5,2.87,-11.29,-13.97,0,*7A
1499569210.62,15978,16.88,74062.3,2.87,-11.29,-14.05,0,*79
1499569211.88,15979,16.88,74060.8,2.87,-11.29,-14.05,0,*78
1499569213.13,15980,16.88,74064.0,2.87,-11.29,-14.05,0,*7E
1499569214.38,15981,16.88,74062.8,2.87,-11.37,-14.05,0,*70
1499569215.63,15982,16.88,74064.5,2.87,-11.37,-13.97,0,*7F
1499569216.83,15983,16.88,74070.5,2.87,-11.41,-14.11,0,*76
1499569218.03,15984,16.88,74066.8,2.87,-11.41,-14.11,0,*71
1499569219.23,15985,16.88,74072.8,2.87,-11.41,-14.19,0,*78
1499569220.45,15986,16.88,74064.0,2.87,-11.37,-14.11,0,*72
1499569221.71,15987,16.88,74064.3,2.87,-11.29,-14.05,0,*79
1499569222.96,15988,16.88,74064.3,2.87,-11.37,-14.05,0,*79
1499569224.19,15989,16.88,74060.8,2.87,-11.23,-13.97,0,*71
1499569225.44,15990,16.88,74056.3,2.85,-11.33,-14.11,0,*73
1499569226.68,15991,16.88,74054.0,2.87,-11.37,-14.05,0,*71
1499569227.94,15992,16.88,74054.3,2.89,-11.29,-14.19,0,*7E
1499569229.17,15993,16.88,74054.0,2.89,-11.41,-14.19,0,*71
1499569230.42,15994,16.88,74048.5,2.87,-11.29,-14.05,0,*7B
1499569231.65,15995,16.88,74058.0,2.87,-11.15,-13.83,0,*7C
1499569232.88,15996,16.88,74052.8,2.87,-11.23,-13.97,0,*7F
1499569234.1,15997,16.88,74058.3,2.87,-11.23,-14.05,0,*72
1499569235.33,15998,16.88,74060.8,2.87,-11.41,-14.05,0,*79
1499569236.62,15999,16.88,74060.3,2.89,-11.29,-13.97,0,*74
1499569237.89,16000,16.88,74054.0,2.89,-11.37,-14.05,0,*7D
1499569239.12,16001,16.88,74052.3,2.89,-11.41,-14.19,0,*70
1499569240.33,16002,16.88,74062.0,2.87,-11.41,-14.23,0,*74
1499569241.61,16003,16.88,74062.8,2.89,-11.29,-14.05,0,*71
1499569242.87,16004,16.88,74064.0,2.89,-11.29,-14.19,0,*7B
1499569244.15,16005,16.88,74062.0,2.89,-11.29,-13.97,0,*7B
1499569245.41,16006,16.88,74064.5,2.89,-11.15,-13.97,0,*77
1499569246.66,16007,16.88,74062.3,2.89,-11.23,-14.05,0,*7F
1499569247.92,16008,16.88,74066.8,2.91,-11.33,-14.01,0,*7C
1499569249.17,16009,16.88,74066.0,2.89,-11.29,-14.11,0,*7E
1499569250.42,16010,16.88,74070.0,2.89,-11.29,-14.11,0,*76
1499569251.67,16011,16.88,74060.0,2.89,-11.07,-13.73,0,*78
1499569252.93,16012,16.88,74060.0,2.89,-11.07,-13.73,0,*7B
1499569254.15,16013,16.88,74060.5,2.91,-11.01,-13.79,0,*7F
1499569255.37,16014,16.88,74058.3,2.91,-11.01,-13.79,0,*78
1499569256.59,16015,16.88,74060.5,2.91,-11.07,-13.93,0,*7B
1499569257.82,16016,16.88,74056.5,2.91,-11.19,-14.01,0,*7B
1499569259.04,16017,16.88,74064.0,2.91,-11.11,-13.87,0,*7B
1499569260.26,16018,16.81,74062.3,2.91,-11.07,-13.93,0,*76
1499569261.46,16019,16.88,74060.8,2.91,-11.01,-13.69,0,*74
1499569262.69,16020,16.88,74062.3,2.91,-10.89,-13.61,0,*77
1499569263.91,16021,16.81,74062.8,2.91,-11.01,-13.79,0,*7E
1499569265.16,16022,16.88,74064.3,2.91,-10.79,-13.61,0,*7A
1499569266.38,16023,16.88,74060.3,2.95,-10.71,-13.43,0,*77
1499569267.6,16024,16.88,74060.5,2.95,-10.75,-13.51,0,*77
1499569268.8,16025,16.88,74062.5,2.95,-10.85,-13.51,0,*79
1499569269.99,16026,16.88,74062.8,2.95,-11.01,-13.73,0,*77
1499569271.22,16027,16.88,74062.0,2.95,-10.97,-13.83,0,*77
1499569272.46,16028,16.88,74058.5,2.97,-10.93,-13.79,0,*7B
1499569273.71,16029,16.88,74060.3,2.95,-11.07,-13.87,0,*75
1499569274.93,16030,16.88,74058.3,2.95,-11.01,-13.83,0,*7F
1499569276.13,16031,16.88,74062.3,2.95,-10.97,-13.73,0,*7F
1499569277.36,16032,16.88,74056.0,3.01,-10.93,-13.61,0,*77
1499569278.61,16033,16.88,74056.3,2.97,-10.85,-13.61,0,*7F
1499569279.86,16034,16.81,74056.0,3.01,-10.79,-13.61,0,*75
1499569281.11,16035,16.88,74056.8,2.97,-10.93,-13.83,0,*72
1499569282.3,16036,16.88,74056.8,3.01,-10.97,-13.93,0,*7A
1499569283.53,16037,16.88,74056.8,3.01,-11.11,-13.97,0,*70
1499569284.73,16038,16.88,74058.3,3.01,-11.23,-14.11,0,*77
1499569285.92,16039,16.88,74060.3,3.01,-11.23,-14.11,0,*76
1499569287.12,16040,16.81,74056.8,3.01,-11.15,-14.19,0,*75
1499569288.35,16041,16.88,74060.5,3.05,-11.29,-14.11,0,*77
1499569289.6,16042,16.88,74062.3,2.97,-11.37,-14.33,0,*71
1499569290.8,16043,16.88,74060.8,3.05,-11.41,-14.23,0,*7A
1499569292.01,16044,16.88,74060.8,3.05,-11.45,-14.37,0,*7C
1499569293.24,16045,16.88,74062.0,3.05,-11.33,-14.37,0,*7C
1499569294.45,16046,16.88,74064.5,3.05,-11.41,-14.37,0,*7A
1499569295.67,16047,16.81,74060.3,3.05,-11.45,-14.43,0,*7C
1499569296.9,16048,16.88,74066.0,3.05,-11.45,-14.43,0,*73
1499569298.16,16049,16.88,74066.0,3.05,-11.55,-14.55,0,*74
1499569299.41,16050,16.88,74066.5,3.01,-11.63,-14.51,0,*79
1499569300.66,16051,16.88,74064.8,3.07,-11.33,-14.37,0,*7B
1499569301.89,16052,16.88,74070.5,3.01,-11.41,-14.51,0,*7B
1499569303.12,16053,16.88,74068.5,2.97,-11.41,-14.37,0,*74
1499569304.32,16054,16.81,74060.8,3.01,-11.41,-14.33,0,*79
1499569305.53,16055,16.88,74066.3,3.01,-11.41,-14.37,0,*7C
1499569306.78,16056,16.81,74060.8,3.01,-11.51,-14.47,0,*79
1499569308.03,16057,16.88,74066.5,3.01,-11.55,-14.51,0,*7B
1499569309.28,16058,16.88,74066.3,3.01,-11.51,-14.47,0,*77
1499569310.56,16059,16.88,74060.8,2.97,-11.55,-14.55,0,*7F
1499569311.82,16060,16.88,74064.8,3.05,-11.55,-14.55,0,*7F
1499569313.07,16061,16.88,74066.8,3.05,-11.55,-14.47,0,*7D
1499569314.33,16062,16.88,74062.5,2.97,-11.63,-14.65,0,*71
1499569315.59,16063,16.88,74064.8,2.97,-11.67,-14.65,0,*74
1499569316.81,16064,16.88,74064.0,3.01,-11.77,-14.69,0,*70
1499569318.09,16065,16.88,74066.0,2.97,-11.77,-14.79,0,*7E
1499569319.34,16066,16.88,74074.3,3.01,-11.67,-14.79,0,*72
1499569320.62,16067,16.81,74070.5,2.97,-11.67,-14.79,0,*7D
1499569321.87,16068,16.88,74070.5,2.97,-11.67,-14.69,0,*73
1499569323.13,16069,16.88,74072.5,2.97,-11.63,-14.65,0,*7A
1499569324.41,16070,16.88,74068.8,2.97,-11.55,-14.55,0,*74
1499569325.66,16071,16.88,74068.0,2.97,-11.63,-14.69,0,*7F
1499569326.92,16072,16.88,74068.0,2.97,-11.63,-14.69,0,*7C
1499569328.17,16073,16.88,74066.3,2.97,-11.63,-14.69,0,*7D
1499569329.42,16074,16.88,74064.3,2.97,-11.63,-14.69,0,*7A
1499569330.68,16075,16.81,74062.3,2.97,-11.55,-14.65,0,*72
1499569331.93,16076,16.81,74066.0,2.97,-11.63,-14.69,0,*78
1499569333.21,16077,16.88,74064.0,2.97,-11.77,-14.83,0,*78
1499569334.49,16078,16.81,74070.0,2.97,-11.67,-14.83,0,*76
1499569335.71,16079,16.88,74070.8,2.95,-11.59,-14.69,0,*7C
1499569336.96,16080,16.88,74066.5,2.95,-11.59,-14.75,0,*77
1499569338.24,16081,16.88,74062.8,2.97,-11.63,-14.79,0,*71
1499569339.46,16082,16.88,74062.3,2.95,-11.81,-14.89,0,*73
1499569340.71,16083,16.88,74068.0,2.95,-11.85,-15.01,0,*77
1499569341.96,16084,16.88,74070.3,2.95,-11.89,-14.97,0,*72
1499569343.21,16085,16.88,74068.8,2.95,-11.85,-14.97,0,*7F
1499569344.46,16086,16.81,74062.5,2.95,-11.85,-14.97,0,*7C
1499569345.71,16087,16.81,74062.0,2.95,-11.89,-15.01,0,*7F
1499569346.93,16088,16.88,74066.8,2.95,-11.97,-15.11,0,*7E
1499569348.15,16089,16.88,74066.5,2.95,-11.97,-15.15,0,*7B
1499569349.4,16090,16.81,74070.5,2.93,-11.89,-15.11,0,*7E
1499569350.65,16091,16.88,74070.5,2.95,-11.97,-15.01,0,*77
1499569351.9,16092,16.88,74070.3,2.93,-11.89,-15.11,0,*7C
1499569353.14,16093,16.81,74070.8,2.95,-11.89,-15.01,0,*7A
1499569354.37,16094,16.88,74072.3,2.95,-11.89,-15.15,0,*78
1499569355.62,16095,16.81,74068.5,2.93,-11.89,-15.11,0,*7B
1499569356.86,16096,16.81,74070.8,2.93,-11.89,-15.11,0,*78
1499569358.11,16097,16.88,74070.0,2.93,-11.85,-15.11,0,*75
1499569359.36,16098,16.81,74068.5,2.93,-11.89,-15.11,0,*76
1499569360.58,16099,16.81,74072.8,2.95,-11.85,-15.11,0,*7D
1499569361.81,16100,16.88,74074.0,2.95,-11.97,-15.11,0,*7F
1499569363.08,16101,16.88,74078.5,2.93,-11.85,-14.97,0,*74
1499569364.35,16102,16.81,74076.3,2.93,-11.85,-15.01,0,*79
1499569365.62,16103,16.88,74076.5,2.93,-11.89,-15.01,0,*74
1499569366.89,16104,16.88,74072.0,2.93,-11.85,-15.01,0,*7F
1499569368.16,16105,16.88,74072.5,2.93,-11.81,-14.97,0,*74
1499569369.43,16106,16.88,74070.0,2.93,-11.81,-14.97,0,*77
1499569370.71,16107,16.88,74068.3,2.93,-11.67,-14.83,0,*7B
1499569371.94,16108,16.81,74062.8,2.91,-11.73,-14.89,0,*79
1499569373.19,16109,16.88,74058.5,2.93,-11.45,-14.55,0,*7E
1499569374.44,16110,16.81,74052.0,2.93,-11.45,-14.55,0,*76
1499569375.69,16111,16.81,74052.8,2.95,-11.55,-14.75,0,*72
1499569376.94,16112,16.88,74058.8,2.93,-11.73,-14.89,0,*70
1499569378.21,16113,16.88,74060.3,2.93,-11.85,-15.01,0,*79
1499569379.43,16114,16.88,74060.3,2.95,-11.97,-15.15,0,*7E
1499569380.66,16115,16.88,74062.0,2.95,-11.97,-15.15,0,*7F
1499569381.9,16116,16.88,74062.5,2.93,-11.97,-15.15,0,*7A
1499569383.13,16117,16.88,74066.8,2.93,-12.03,-15.15,0,*75
1499569384.35,16118,16.88,74066.3,2.93,-12.03,-15.15,0,*7A
1499569385.6,16119,16.88,74068.8,2.93,-11.97,-15.15,0,*75
1499569386.87,16120,16.88,74070.0,2.93,-11.97,-15.01,0,*7A
1499569388.14,16121,16.88,74064.0,2.93,-11.89,-14.97,0,*7A
1499569389.37,16122,16.88,74056.8,2.91,-11.93,-15.07,0,*78
1499569390.65,16123,16.88,74058.8,2.93,-11.89,-15.01,0,*76
1499569391.89,16124,16.88,74062.8,2.93,-11.89,-15.11,0,*70
1499569393.17,16125,16.88,74064.5,2.93,-11.89,-15.01,0,*70
1499569394.41,16126,16.88,74072.8,2.91,-11.73,-14.79,0,*7A
1499569395.67,16127,16.88,74068.5,2.95,-11.67,-14.83,0,*7F
1499569396.94,16128,16.88,74066.3,2.93,-11.55,-14.55,0,*7C
1499569398.21,16129,16.81,74064.5,2.93,-11.67,-14.75,0,*7E
1499569399.45,16130,16.81,74056.3,2.95,-11.81,-15.01,0,*7A
1499569400.7,16131,16.88,74064.5,2.95,-11.85,-15.01,0,*7F
1499569401.95,16132,16.88,74064.5,2.95,-11.89,-14.97,0,*7E
1499569403.2,16133,16.88,74066.8,2.95,-11.89,-15.01,0,*71
1499569404.47,16134,16.88,74060.8,2.93,-11.81,-14.97,0,*76
1499569405.69,16135,16.88,74062.3,2.95,-11.59,-14.69,0,*75
1499569406.94,16136,16.81,74060.3,2.95,-11.67,-14.75,0,*76
1499569408.18,16137,16.88,74064.0,2.93,-11.73,-14.89,0,*77
1499569409.46,16138,16.88,74066.3,2.97,-11.67,-14.93,0,*72
1499569410.73,16139,16.88,74064.5,2.93,-11.89,-15.01,0,*7D
1499569411.96,16140,16.88,74060.5,2.95,-11.97,-15.11,0,*7B
1499569413.18,16141,16.88,74062.8,2.95,-11.97,-15.11,0,*7A
1499569414.45,16142,16.88,74062.0,2.93,-11.89,-15.01,0,*71
1499569415.68,16143,16.88,74062.8,2.95,-11.73,-14.89,0,*72
1499569416.95,16144,16.81,74062.0,2.93,-11.67,-14.83,0,*7C
1499569418.2,16145,16.81,74062.3,2.93,-11.67,-14.61,0,*71
1499569419.43,16146,16.88,74066.5,2.95,-11.45,-14.55,0,*73
1499569420.66,16147,16.81,74062.5,2.95,-11.45,-14.51,0,*76
1499569421.88,16148,16.88,74064.0,2.95,-11.41,-14.43,0,*7E
1499569423.15,16149,16.81,74060.5,2.97,-11.51,-14.55,0,*7B
1499569424.38,16150,16.81,74066.8,2.95,-11.45,-14.51,0,*70
1499569425.64,16151,16.88,74066.3,2.97,-11.41,-14.47,0,*70
1499569426.87,16152,16.81,74058.8,3.01,-11.37,-14.37,0,*7B
1499569428.15,16153,16.88,74064.0,2.97,-11.67,-14.79,0,*7B
1499569429.4,16154,16.81,74058.0,3.01,-11.81,-14.83,0,*7F
1499569430.63,16155,16.88,74052.0,3.01,-11.93,-15.11,0,*77
1499569431.88,16156,16.88,74056.8,2.97,-11.97,-15.07,0,*79
1499569433.16,16157,16.88,74060.3,2.97,-11.85,-14.93,0,*77
1499569434.43,16158,16.81,74056.8,2.97,-11.81,-14.97,0,*78
1499569435.68,16159,16.88,74062.8,3.01,-11.81,-14.93,0,*73
1499569436.97,16160,16.88,74064.3,2.97,-11.93,-14.97,0,*70
1499569438.2,16161,16.88,74068.3,3.01,-11.93,-15.11,0,*70
1499569439.45,16162,16.81,74062.5,2.97,-12.07,-15.11,0,*73
1499569440.72,16163,16.88,74064.8,2.97,-12.11,-15.25,0,*72
1499569441.99,16164,16.81,74066.5,2.97,-12.11,-15.21,0,*71
1499569443.26,16165,16.81,74064.8,2.97,-12.11,-15.25,0,*74
1499569444.47,16166,16.81,74066.0,2.95,-12.25,-15.25,0,*72
1499569445.73,16167,16.88,74070.5,2.97,-12.21,-15.21,0,*71
1499569446.93,16168,16.88,74066.8,2.95,-12.03,-15.25,0,*78
1499569448.15,16169,16.88,74066.3,2.95,-11.97,-15.11,0,*70
1499569449.38,16170,16.88,74070.3,2.95,-12.11,-15.15,0,*71
1499569450.6,16171,16.81,74064.3,2.95,-11.97,-15.15,0,*7D
1499569451.86,16172,16.81,74066.3,2.97,-12.07,-15.11,0,*72
1499569453.11,16173,16.81,74066.8,2.97,-12.07,-15.11,0,*73
1499569454.34,16174,16.81,74066.8,2.95,-12.11,-15.15,0,*75
1499569455.57,16175,16.88,74064.3,2.95,-12.15,-15.25,0,*73
1499569456.77,16176,16.81,74064.3,2.95,-12.03,-15.15,0,*74
1499569457.99,16177,16.81,74062.8,2.95,-11.97,-15.11,0,*7F
1499569459.19,16178,16.88,74062.0,2.95,-12.03,-15.15,0,*7A
1499569460.41,16179,16.81,74064.8,2.95,-12.11,-15.11,0,*7C
1499569461.66,16180,16.81,74064.0,2.95,-11.85,-14.97,0,*7B
1499569462.89,16181,16.88,74062.0,2.95,-11.89,-14.89,0,*79
1499569464.13,16182,16.88,74064.3,2.95,-11.73,-14.75,0,*7C
1499569465.41,16183,16.88,74064.5,2.97,-11.77,-14.83,0,*72
1499569466.66,16184,16.81,74062.5,3.01,-11.85,-14.93,0,*77
1499569467.92,16185,16.81,74060.3,2.97,-12.07,-15.11,0,*7A
1499569469.17,16186,16.88,74066.5,2.97,-12.07,-15.11,0,*79
1499569470.4,16187,16.81,74064.8,2.95,-12.11,-15.15,0,*79
1499569471.65,16188,16.81,74066.5,2.97,-11.97,-15.11,0,*7D
1499569472.91,16189,16.88,74068.8,2.97,-11.93,-15.07,0,*7F
1499569474.16,16190,16.88,74068.3,2.97,-11.97,-15.11,0,*74
1499569475.39,16191,16.88,74070.5,2.95,-12.15,-15.15,0,*7A
1499569476.6,16192,16.88,74072.0,2.95,-12.25,-15.29,0,*75
1499569477.86,16193,16.81,74068.0,2.97,-12.21,-15.21,0,*7A
1499569479.14,16194,16.88,74072.3,2.97,-12.11,-15.21,0,*7E
1499569480.37,16195,16.81,74070.8,2.95,-12.15,-15.25,0,*7D
1499569481.6,16196,16.88,74072.5,2.95,-12.15,-15.25,0,*7E
1499569482.83,16197,16.88,74072.5,2.95,-12.15,-15.29,0,*73
1499569484.07,16198,16.88,74074.5,2.95,-12.15,-15.29,0,*7C
1499569485.28,16199,16.81,74070.5,2.95,-12.25,-15.25,0,*72
1499569486.51,16200,16.81,74068.3,2.93,-12.29,-15.29,0,*77
1499569487.72,16201,16.88,74070.3,2.95,-12.25,-15.29,0,*7C
1499569488.98,16202,16.88,74068.5,2.93,-12.29,-15.39,0,*74
1499569490.21,16203,16.88,74068.3,2.95,-12.29,-15.39,0,*73
1499569491.44,16204,16.88,74068.5,2.93,-12.25,-15.29,0,*7F
1499569492.65,16205,16.88,74066.5,2.95,-12.29,-15.29,0,*74
1499569493.89,16206,16.88,74070.3,2.93,-12.29,-15.29,0,*71
1499569495.12,16207,16.88,74070.0,2.93,-12.25,-15.25,0,*70
1499569496.38,16208,16.88,74068.8,2.93,-12.29,-15.39,0,*7E
1499569497.64,16209,16.88,74070.3,2.93,-12.15,-15.29,0,*71
1499569498.87,16210,16.81,74064.8,2.93,-12.29,-15.29,0,*76
1499569500.1,16211,16.88,74068.3,2.93,-12.25,-15.29,0,*7B
1499569501.31,16212,16.88,74070.0,2.95,-12.25,-15.29,0,*7E
1499569502.55,16213,16.88,74068.3,2.93,-12.29,-15.29,0,*75
1499569503.76,16214,16.88,74064.8,2.91,-12.21,-15.29,0,*78
1499569505.03,16215,16.88,74068.3,2.89,-12.21,-15.35,0,*7D
1499569506.28,16216,16.81,74066.5,2.89,-12.25,-15.35,0,*7A
1499569507.5,16217,16.81,74068.5,2.91,-12.29,-15.29,0,*73
1499569508.71,16218,16.81,74066.8,2.91,-12.29,-15.29,0,*7C
1499569509.92,16219,16.88,74066.3,2.91,-12.29,-15.29,0,*7D
1499569511.16,16220,16.81,74064.5,2.91,-12.29,-15.35,0,*7A
1499569512.39,16221,16.88,74068.3,2.91,-12.29,-15.35,0,*7B
1499569513.62,16222,16.88,74070.8,2.91,-12.15,-15.29,0,*7A
1499569514.88,16223,16.88,74066.0,2.89,-12.25,-15.35,0,*7C
1499569516.11,16224,16.88,74066.3,2.91,-12.21,-15.35,0,*76
1499569517.34,16225,16.88,74066.3,2.91,-12.29,-15.35,0,*7F
1499569518.6,16226,16.81,74068.8,2.91,-12.35,-15.43,0,*70
1499569519.84,16227,16.88,74070.5,2.91,-12.29,-15.43,0,*7C
1499569521.09,16228,16.88,74064.8,2.91,-12.35,-15.43,0,*7E
1499569522.33,16229,16.88,74070.5,2.91,-12.29,-15.43,0,*72
1499569523.58,16230,16.88,74070.8,2.91,-12.35,-15.35,0,*76
1499569524.84,16231,16.81,74070.0,2.93,-12.29,-15.39,0,*74
1499569526.1,16232,16.81,74068.8,2.89,-12.35,-15.29,0,*70
1499569527.39,16233,16.81,74072.5,2.89,-12.35,-15.39,0,*70
1499569528.62,16234,16.88,74074.5,2.89,-12.39,-15.29,0,*7A
1499569529.86,16235,16.81,74072.3,2.89,-12.39,-15.49,0,*7D
1499569531.14,16236,16.88,74076.5,2.89,-12.35,-15.39,0,*75
1499569532.4,16237,16.81,74074.3,2.89,-12.39,-15.39,0,*78
1499569533.66,16238,16.81,74076.8,2.89,-12.39,-15.39,0,*77
1499569534.94,16239,16.88,74076.0,2.89,-12.35,-15.39,0,*7A
1499569536.18,16240,16.88,74076.0,2.91,-12.29,-15.35,0,*7C
1499569537.43,16241,16.88,74080.3,2.89,-12.39,-15.39,0,*79
1499569538.69,16242,16.88,74080.3,2.89,-12.39,-15.35,0,*76
1499569539.94,16243,16.81,74078.8,2.89,-12.39,-15.39,0,*7B
1499569541.17,16244,16.88,74080.3,2.91,-12.29,-15.35,0,*78
1499569542.4,16245,16.88,74082.5,2.87,-12.39,-15.39,0,*73
1499569543.65,16246,16.88,74080.3,2.89,-12.39,-15.35,0,*72
1499569544.91,16247,16.88,74082.5,2.87,-12.35,-15.39,0,*7D
1499569546.14,16248,16.88,74084.0,2.87,-12.39,-15.39,0,*7E
1499569547.4,16249,16.88,74080.3,2.85,-12.43,-15.43,0,*7D
1499569548.66,16250,16.88,74082.5,2.87,-12.35,-15.39,0,*7B
1499569549.92,16251,16.88,74082.3,2.87,-12.35,-15.39,0,*7A
1499569551.17,16252,16.88,74086.3,2.87,-12.35,-15.35,0,*75
1499569552.38,16253,16.81,74080.8,2.87,-12.25,-15.29,0,*78
1499569553.6,16254,16.81,74080.5,2.87,-12.21,-15.25,0,*77
1499569554.85,16255,16.88,74080.5,2.87,-12.11,-15.21,0,*71
1499569556.11,16256,16.88,74086.8,2.85,-12.15,-15.29,0,*7C
1499569557.35,16257,16.88,74082.3,2.85,-12.39,-15.29,0,*73
1499569558.56,16258,16.88,74084.0,2.87,-12.25,-15.25,0,*7F
1499569559.84,16259,16.88,74084.3,2.85,-12.15,-15.21,0,*7B
1499569561.07,16260,16.88,74082.8,2.87,-12.07,-15.11,0,*73
1499569562.3,16261,16.81,74082.5,2.87,-12.11,-15.07,0,*72
1499569563.55,16262,16.81,74080.5,2.87,-12.11,-15.21,0,*75
1499569564.78,16263,16.88,74080.3,2.87,-12.35,-15.25,0,*76
1499569566.05,16264,16.81,74080.3,2.85,-12.15,-15.25,0,*71
1499569567.29,16265,16.88,74082.3,2.85,-12.25,-15.29,0,*7F
1499569568.55,16266,16.88,74080.5,2.85,-12.29,-15.39,0,*71
1499569569.81,16267,16.88,74080.8,2.85,-12.25,-15.39,0,*7C
1499569571.07,16268,16.88,74088.0,2.85,-12.15,-15.11,0,*7A
1499569572.32,16269,16.88,74084.8,2.87,-11.97,-14.97,0,*7F
1499569573.55,16270,16.81,74086.0,2.85,-12.03,-15.11,0,*74
1499569574.78,16271,16.88,74080.0,2.87,-12.07,-15.07,0,*74
1499569576.03,16272,16.88,74082.0,2.87,-11.97,-14.93,0,*71
1499569577.25,16273,16.88,74084.0,2.85,-12.03,-15.11,0,*77
1499569578.48,16274,16.81,74080.3,2.87,-12.07,-15.11,0,*76
1499569579.72,16275,16.88,74084.0,2.87,-12.21,-15.21,0,*70
1499569580.94,16276,16.88,74080.5,2.87,-12.11,-15.11,0,*73
1499569582.2,16277,16.81,74082.3,2.87,-11.93,-14.97,0,*74
1499569583.48,16278,16.81,74080.0,2.89,-11.89,-14.93,0,*7A
1499569584.77,16279,16.88,74080.3,2.89,-11.93,-14.93,0,*70
1499569586.02,16280,16.88,74076.8,2.89,-12.07,-15.11,0,*73
1499569587.27,16281,16.88,74078.5,2.89,-12.21,-15.25,0,*71
1499569588.51,16282,16.88,74074.0,2.89,-12.25,-15.25,0,*76
1499569589.74,16283,16.81,74072.5,2.91,-12.21,-15.21,0,*7E
1499569591.0,16284,16.88,74076.3,2.89,-12.39,-15.39,0,*70
1499569592.25,16285,16.88,74074.8,2.91,-12.35,-15.35,0,*78
1499569593.51,16286,16.81,74074.3,2.89,-12.39,-15.39,0,*72
1499569594.77,16287,16.88,74078.8,2.89,-12.47,-15.39,0,*7A
1499569596.03,16288,16.88,74078.3,2.89,-12.53,-15.53,0,*7C
1499569597.27,16289,16.81,74078.5,2.87,-12.53,-15.49,0,*78
1499569598.56,16290,16.81,74074.5,2.89,-12.53,-15.39,0,*79
1499569599.79,16291,16.81,74078.5,2.89,-12.47,-15.49,0,*7A
1499569601.0,16292,16.88,74080.3,2.87,-12.47,-15.49,0,*77
1499569602.23,16293,16.88,74082.5,2.87,-12.47,-15.39,0,*71
1499569603.46,16294,16.81,74080.3,2.87,-12.47,-15.35,0,*7A
1499569604.69,16295,16.81,74080.8,2.87,-12.39,-15.35,0,*72
1499569605.94,16296,16.88,74082.0,2.85,-12.43,-15.39,0,*72
1499569607.19,16297,16.88,74076.8,2.89,-12.39,-15.35,0,*7E
1499569608.45,16298,16.88,74070.3,2.89,-12.39,-15.35,0,*71
1499569609.7,16299,16.81,74070.5,2.89,-12.39,-15.35,0,*70
1499569610.96,16300,16.88,74070.5,2.89,-12.39,-15.39,0,*7D
1499569612.18,16301,16.88,74072.3,2.87,-12.47,-15.35,0,*77
1499569613.46,16302,16.81,74070.8,2.89,-12.53,-15.35,0,*7F
1499569614.72,16303,16.81,74070.5,2.87,-12.53,-15.39,0,*7C
1499569615.95,16304,16.88,74072.8,2.87,-12.47,-15.35,0,*72
1499569617.18,16305,16.88,74076.0,2.87,-12.47,-15.35,0,*73
1499569618.4,16306,16.81,74076.8,2.87,-12.47,-15.35,0,*70
1499569619.66,16307,16.88,74078.0,2.89,-12.39,-15.35,0,*76
1499569620.91,16308,16.88,74076.5,2.89,-12.39,-15.39,0,*75
1499569622.17,16309,16.88,74072.5,2.85,-12.43,-15.39,0,*75
1499569623.4,16310,16.88,74084.5,2.87,-12.43,-15.39,0,*7F
1499569624.61,16311,16.88,74074.3,2.87,-12.21,-15.07,0,*77
1499569625.86,16312,16.81,74072.5,2.87,-12.35,-15.21,0,*75
1499569627.07,16313,16.81,74072.0,2.87,-12.39,-15.25,0,*7C
1499569628.3,16314,16.81,74078.8,2.87,-12.47,-15.35,0,*73
1499569629.55,16315,16.81,74076.8,2.89,-12.47,-15.35,0,*7C
1499569630.76,16316,16.88,74082.5,2.87,-12.47,-15.25,0,*70
1499569631.99,16317,16.88,74084.5,2.87,-12.25,-14.97,0,*7D
1499569633.24,16318,16.88,74080.5,2.87,-12.11,-14.93,0,*71
1499569634.46,16319,16.81,74082.8,2.87,-11.81,-14.61,0,*77
1499569635.69,16320,16.88,74078.5,2.87,-11.89,-14.61,0,*75
1499569636.94,16321,16.81,74076.8,2.89,-11.97,-14.69,0,*7D
1499569638.18,16322,16.88,74078.5,2.91,-11.93,-14.65,0,*7F
1499569639.43,16323,16.81,74076.8,2.89,-11.89,-14.69,0,*70
1499569640.69,16324,16.81,74076.0,2.91,-11.93,-14.79,0,*74
1499569641.94,16325,16.81,74078.3,2.89,-12.07,-14.65,0,*7F
1499569643.2,16326,16.81,74076.5,2.91,-11.77,-14.47,0,*71
1499569644.45,16327,16.88,74080.3,2.91,-11.63,-14.43,0,*71
1499569645.7,16328,16.81,74074.5,2.91,-11.85,-14.47,0,*72
1499569646.97,16329,16.81,74070.8,2.93,-11.85,-14.51,0,*76
1499569648.22,16330,16.88,74070.0,2.93,-11.73,-14.37,0,*77
1499569649.46,16331,16.88,74072.8,2.93,-11.73,-14.29,0,*79
1499569650.68,16332,16.81,74066.5,2.95,-11.59,-14.29,0,*74
1499569651.91,16333,16.81,74062.5,2.95,-11.97,-14.61,0,*7B
1499569653.1,16334,16.88,74070.0,2.95,-12.03,-14.61,0,*72
1499569654.35,16335,16.81,74066.0,2.95,-12.15,-14.83,0,*78
1499569655.6,16336,16.88,74068.8,2.97,-12.07,-14.69,0,*7E
1499569656.82,16337,16.88,74072.0,2.95,-12.11,-14.69,0,*7A
1499569658.08,16338,16.81,74070.8,2.97,-12.07,-14.65,0,*7C
1499569659.34,16339,16.88,74070.3,2.97,-12.21,-14.83,0,*71
1499569660.55,16340,16.88,74060.8,2.95,-12.29,-14.89,0,*7F
1499569661.8,16341,16.81,74058.3,2.97,-12.11,-14.69,0,*79
1499569663.05,16342,16.88,74066.0,2.97,-12.07,-14.65,0,*71
1499569664.3,16343,16.88,74070.8,2.97,-11.97,-14.69,0,*76
1499569665.58,16344,16.88,74068.0,2.97,-12.07,-14.55,0,*74
1499569666.86,16345,16.81,74062.8,2.97,-12.07,-14.55,0,*75
1499569668.14,16346,16.81,74060.0,2.97,-12.07,-14.55,0,*76
1499569669.4,16347,16.88,74062.0,2.97,-12.25,-14.79,0,*79
1499569670.65,16348,16.88,74060.5,2.97,-12.39,-14.93,0,*7F
1499569671.93,16349,16.81,74066.3,2.97,-12.35,-14.83,0,*73
1499569673.18,16350,16.88,74064.8,3.01,-12.35,-14.79,0,*70
1499569674.44,16351,16.81,74060.8,2.97,-12.25,-14.83,0,*7B
1499569675.69,16352,16.88,74064.0,2.97,-12.39,-14.93,0,*74
1499569676.92,16353,16.81,74066.3,3.01,-12.39,-14.97,0,*7F
1499569678.2,16354,16.81,74064.3,2.97,-12.35,-14.79,0,*7A
1499569679.45,16355,16.88,74064.0,3.01,-12.35,-14.79,0,*75
1499569680.73,16356,16.81,74066.0,2.97,-12.35,-14.79,0,*78
1499569682.01,16357,16.81,74066.3,2.97,-12.35,-14.79,0,*79
1499569683.27,16358,16.88,74070.3,3.05,-12.35,-14.75,0,*70
1499569684.49,16359,16.88,74068.5,3.01,-12.47,-14.93,0,*78
1499569685.71,16360,16.88,74066.8,3.01,-12.35,-14.69,0,*72
1499569686.97,16361,16.88,74064.5,3.01,-12.07,-14.47,0,*7E
1499569688.17,16362,16.81,74066.5,3.01,-12.25,-14.69,0,*71
1499569689.39,16363,16.88,74066.5,3.05,-12.39,-14.75,0,*74
1499569690.67,16364,16.88,74068.5,2.97,-12.61,-14.97,0,*78
1499569691.9,16365,16.88,74068.5,3.01,-12.47,-14.97,0,*73
1499569693.16,16366,16.88,74070.0,3.05,-12.53,-14.83,0,*74
1499569694.38,16367,16.88,74072.5,3.01,-12.53,-15.07,0,*7C
1499569695.61,16368,16.88,74074.5,3.01,-12.65,-15.07,0,*76
1499569696.83,16369,16.88,74074.5,3.01,-12.65,-15.07,0,*77
1499569698.11,16370,16.88,74072.3,2.97,-12.61,-14.93,0,*79
1499569699.38,16371,16.81,74068.0,2.97,-12.61,-14.97,0,*7C
1499569700.66,16372,16.81,74070.5,2.97,-12.61,-14.97,0,*7F
1499569701.91,16373,16.88,74076.8,3.01,-12.61,-14.93,0,*74
1499569703.16,16374,16.88,74076.0,2.97,-12.47,-14.97,0,*7D
1499569704.44,16375,16.88,74074.0,2.97,-12.61,-14.83,0,*7D
1499569705.72,16376,16.88,74076.8,2.97,-12.53,-14.79,0,*7A